Location: Dillon
(41.1766°N, 107.0923°W)
Time: 06:36:38
(UTC+00:00)

DIWATA 2B (PO-101) - Pass Details

Date: 01 July 2022
Orbit: 583 x 599 km, 98.0° (Epoch: 15 August)

Event Time Altitude Azimuth Distance (km) Brightness Sun altitude
Exits shadow 09:42:12 31° 240° (WSW) 1,059 ? -16.9°
Maximum altitude 09:42:57 33° 263° (W) 1,007 ? -16.8°
Drops below altitude 10° 09:46:48 10° 328° (NNW) 1,947 ? -16.4°
Sets 09:49:09 0° 338° (NNW) 2,854 ? -16.1°
